When you browse on this site, cookies collect data to enhance your experience and personalize the content and advertising you see.
Visit our Privacy Policy to learn more. By continuing to use the site, you agree to this use of cookies and data.
  • En España
  • Lista de países
  • Para 7 días
  • Temperatura del agua
  • El tiempo en el mapa
  • Informadores
  • user-avatar
    Iniciar sesión

    Tiempo cada hora Vysokiy Holm

    Hoy, 5 Junio, Viernes

    Tiempo Temperatura Precipitaciones Viento Presión Humedad
    00:00 +8°C° 0 mm 3 mps 736 mmHg 94%
    01:00 +8°C° 0 mm 3 mps 736 mmHg 95%
    02:00 +7°C° 0 mm 3 mps 736 mmHg 96%
    03:00 +8°C° 0 mm 3 mps 736 mmHg 95%
    04:00 +8°C° 0 mm 3 mps 736 mmHg 95%
    05:00 +8°C° 0 mm 2 mps 736 mmHg 94%
    06:00 +10°C° 0 mm 3 mps 737 mmHg 91%
    07:00 +11°C° 0 mm 3 mps 737 mmHg 87%
    08:00 +12°C° 0 mm 3 mps 737 mmHg 84%
    09:00 +13°C° 0.4 mm 3 mps 737 mmHg 81%
    10:00 +14°C° 0.4 mm 3 mps 737 mmHg 78%
    11:00 +16°C° 0.4 mm 3 mps 737 mmHg 75%
    12:00 +17°C° 0.2 mm 3 mps 737 mmHg 72%
    13:00 +18°C° 0.2 mm 3 mps 737 mmHg 69%
    14:00 +18°C° 0.2 mm 3 mps 737 mmHg 66%
    15:00 +18°C° 0 mm 2 mps 738 mmHg 67%
    16:00 +18°C° 0 mm 2 mps 738 mmHg 68%
    17:00 +18°C° 0 mm 2 mps 738 mmHg 68%
    18:00 +17°C° 0 mm 2 mps 738 mmHg 74%
    19:00 +16°C° 0 mm 2 mps 738 mmHg 80%
    20:00 +14°C° 0 mm 2 mps 739 mmHg 86%
    21:00 +13°C° 0 mm 2 mps 739 mmHg 88%
    22:00 +12°C° 0 mm 3 mps 739 mmHg 90%
    23:00 +11°C° 0 mm 3 mps 739 mmHg 92%

    Mañana, 6 Junio, Sábado

    Tiempo Temperatura Precipitaciones Viento Presión Humedad
    00:00 +11°C° 0 mm 3 mps 739 mmHg 93%
    01:00 +11°C° 0 mm 3 mps 739 mmHg 95%
    02:00 +11°C° 0 mm 3 mps 739 mmHg 96%
    03:00 +12°C° 0 mm 3 mps 739 mmHg 96%
    04:00 +13°C° 0 mm 4 mps 739 mmHg 96%
    05:00 +13°C° 0 mm 4 mps 739 mmHg 96%
    06:00 +15°C° 0 mm 4 mps 739 mmHg 92%
    07:00 +17°C° 0 mm 4 mps 740 mmHg 88%
    08:00 +19°C° 0 mm 5 mps 740 mmHg 84%
    09:00 +20°C° 0.2 mm 5 mps 740 mmHg 85%
    10:00 +20°C° 0.2 mm 4 mps 740 mmHg 85%
    11:00 +21°C° 0.2 mm 4 mps 740 mmHg 85%
    12:00 +21°C° 0.9 mm 5 mps 741 mmHg 85%
    13:00 +22°C° 0.9 mm 5 mps 741 mmHg 84%
    14:00 +22°C° 0.9 mm 5 mps 741 mmHg 84%
    15:00 +22°C° 0.7 mm 5 mps 741 mmHg 84%
    16:00 +22°C° 0.7 mm 4 mps 741 mmHg 83%
    17:00 +22°C° 0.7 mm 4 mps 741 mmHg 83%
    18:00 +21°C° 0.1 mm 3 mps 741 mmHg 86%
    19:00 +20°C° 0.1 mm 3 mps 742 mmHg 88%
    20:00 +19°C° 0.1 mm 2 mps 742 mmHg 91%
    21:00 +17°C° 0 mm 2 mps 743 mmHg 92%
    22:00 +16°C° 0 mm 2 mps 743 mmHg 92%
    23:00 +15°C° 0 mm 2 mps 744 mmHg 93%

    Pasado mañana, 7 Junio, Domingo

    Tiempo Temperatura Precipitaciones Viento Presión Humedad
    00:00 +15°C° 0 mm 2 mps 744 mmHg 92%
    01:00 +14°C° 0 mm 1 mps 745 mmHg 92%
    02:00 +13°C° 0 mm 1 mps 745 mmHg 92%
    03:00 +14°C° 0 mm 1 mps 745 mmHg 91%
    04:00 +14°C° 0 mm 1 mps 746 mmHg 90%
    05:00 +14°C° 0 mm 1 mps 746 mmHg 90%
    06:00 +16°C° 0 mm 1 mps 746 mmHg 84%
    07:00 +19°C° 0 mm 1 mps 747 mmHg 79%
    08:00 +21°C° 0 mm 1 mps 747 mmHg 73%
    09:00 +21°C° 0 mm 2 mps 747 mmHg 70%
    10:00 +23°C° 0 mm 2 mps 747 mmHg 67%
    11:00 +24°C° 0 mm 2 mps 747 mmHg 64%
    12:00 +25°C° 0 mm 2 mps 747 mmHg 64%
    13:00 +25°C° 0 mm 2 mps 747 mmHg 64%
    14:00 +26°C° 0 mm 3 mps 747 mmHg 65%
    15:00 +26°C° 0 mm 3 mps 746 mmHg 68%
    16:00 +26°C° 0 mm 3 mps 746 mmHg 72%
    17:00 +26°C° 0 mm 3 mps 746 mmHg 75%
    18:00 +24°C° 0 mm 3 mps 746 mmHg 80%
    19:00 +22°C° 0 mm 3 mps 746 mmHg 84%
    20:00 +21°C° 0 mm 3 mps 746 mmHg 88%
    21:00 +20°C° 0 mm 2 mps 746 mmHg 90%
    22:00 +19°C° 0 mm 2 mps 746 mmHg 92%
    23:00 +18°C° 0 mm 2 mps 746 mmHg 93%

    8 Junio, Lunes

    Tiempo Temperatura Precipitaciones Viento Presión Humedad
    00:00 +18°C° 0 mm 2 mps 746 mmHg 94%
    01:00 +18°C° 0 mm 2 mps 746 mmHg 94%
    02:00 +18°C° 0 mm 2 mps 746 mmHg 95%
    03:00 +18°C° 0 mm 2 mps 746 mmHg 95%
    04:00 +18°C° 0 mm 2 mps 746 mmHg 94%
    05:00 +18°C° 0 mm 2 mps 746 mmHg 94%
    06:00 +20°C° 0 mm 2 mps 746 mmHg 90%
    07:00 +21°C° 0 mm 2 mps 746 mmHg 85%
    08:00 +24°C° 0 mm 2 mps 746 mmHg 81%
    09:00 +25°C° 0.1 mm 2 mps 747 mmHg 78%
    10:00 +26°C° 0.1 mm 2 mps 747 mmHg 74%
    11:00 +27°C° 0.1 mm 2 mps 747 mmHg 71%
    12:00 +27°C° 0.6 mm 2 mps 746 mmHg 70%
    13:00 +27°C° 0.6 mm 2 mps 746 mmHg 69%
    14:00 +27°C° 0.6 mm 1 mps 746 mmHg 68%
    15:00 +27°C° 0.4 mm 1 mps 746 mmHg 69%
    16:00 +27°C° 0.4 mm 1 mps 746 mmHg 70%
    17:00 +27°C° 0.4 mm 1 mps 745 mmHg 72%
    18:00 +26°C° 0.1 mm 1 mps 745 mmHg 76%
    19:00 +24°C° 0.1 mm 1 mps 745 mmHg 81%
    20:00 +23°C° 0.1 mm 1 mps 745 mmHg 86%
    21:00 +22°C° 0 mm 1 mps 746 mmHg 88%
    22:00 +21°C° 0 mm 1 mps 746 mmHg 89%
    23:00 +20°C° 0 mm 1 mps 746 mmHg 91%

    9 Junio, Martes

    Tiempo Temperatura Precipitaciones Viento Presión Humedad
    00:00 +20°C° 0 mm 1 mps 746 mmHg 91%
    01:00 +20°C° 0 mm 1 mps 746 mmHg 91%
    02:00 +19°C° 0 mm 1 mps 746 mmHg 91%
    03:00 +19°C° 0 mm 1 mps 746 mmHg 91%
    04:00 +20°C° 0 mm 1 mps 746 mmHg 91%
    05:00 +20°C° 0 mm 1 mps 746 mmHg 91%
    06:00 +21°C° 0 mm 1 mps 746 mmHg 87%
    07:00 +23°C° 0 mm 1 mps 747 mmHg 83%
    08:00 +24°C° 0 mm 2 mps 747 mmHg 79%
    09:00 +25°C° 0 mm 2 mps 747 mmHg 77%
    10:00 +26°C° 0 mm 2 mps 747 mmHg 74%
    11:00 +27°C° 0 mm 2 mps 747 mmHg 71%
    12:00 +27°C° 0.6 mm 3 mps 746 mmHg 73%
    13:00 +27°C° 0.6 mm 3 mps 746 mmHg 76%
    14:00 +26°C° 0.6 mm 3 mps 746 mmHg 78%
    15:00 +26°C° 1 mm 3 mps 746 mmHg 80%
    16:00 +26°C° 1 mm 3 mps 746 mmHg 82%
    17:00 +25°C° 1 mm 3 mps 746 mmHg 85%
    18:00 +24°C° 0.1 mm 3 mps 746 mmHg 87%
    19:00 +22°C° 0.1 mm 3 mps 746 mmHg 89%
    20:00 +21°C° 0.1 mm 3 mps 746 mmHg 92%
    21:00 +21°C° 0 mm 3 mps 746 mmHg 93%
    22:00 +20°C° 0 mm 3 mps 747 mmHg 94%
    23:00 +19°C° 0 mm 3 mps 747 mmHg 94%

    10 Junio, Miércoles

    Tiempo Temperatura Precipitaciones Viento Presión Humedad
    00:00 +19°C° 0 mm 3 mps 747 mmHg 95%
    01:00 +18°C° 0 mm 3 mps 746 mmHg 96%
    02:00 +17°C° 0 mm 2 mps 746 mmHg 96%
    03:00 +17°C° 0 mm 2 mps 746 mmHg 96%
    04:00 +17°C° 0 mm 3 mps 746 mmHg 96%
    05:00 +17°C° 0 mm 3 mps 747 mmHg 96%
    06:00 +19°C° 0 mm 3 mps 747 mmHg 93%
    07:00 +20°C° 0 mm 3 mps 747 mmHg 89%
    08:00 +21°C° 0 mm 3 mps 747 mmHg 86%
    09:00 +22°C° 0 mm 3 mps 747 mmHg 81%
    10:00 +24°C° 0 mm 3 mps 747 mmHg 76%
    11:00 +26°C° 0 mm 3 mps 747 mmHg 71%
    12:00 +26°C° 0 mm 3 mps 746 mmHg 70%
    13:00 +26°C° 0 mm 3 mps 746 mmHg 68%
    14:00 +27°C° 0 mm 3 mps 746 mmHg 67%
    15:00 +26°C° 0 mm 2 mps 746 mmHg 68%
    16:00 +26°C° 0 mm 2 mps 746 mmHg 69%
    17:00 +26°C° 0 mm 2 mps 746 mmHg 70%
    18:00 +25°C° 0 mm 2 mps 746 mmHg 76%
    19:00 +23°C° 0 mm 2 mps 745 mmHg 82%
    20:00 +21°C° 0 mm 2 mps 745 mmHg 88%
    21:00 +21°C° 0 mm 1 mps 745 mmHg 89%
    22:00 +20°C° 0 mm 1 mps 746 mmHg 91%
    23:00 +19°C° 0 mm 1 mps 746 mmHg 92%
    Mostrar más